Regional Weather Roundup
Issued by NWS

Home | Current Version | Previous Version | Graphics & Text | Print | Product List | Glossary On
Versions: 1 2 3 4 5 6 7 8 9 10 11 12 13 14 15 16 17 18 19 20 21 22 23 24 25 26 27 28 29 30 31 32 33 34 35 36 37 38 39 40 41 42 43 44 45 46 47 48 49 50
000
ASUS43 KMPX 140601
RWRMN
WEATHER ROUNDUP FOR MINNESOTA
NATIONAL WEATHER SERVICE TWIN CITIES/CHANHASSEN MN
1200 AM CST THU DEC 14 2017


NOTE: "FAIR" INDICATES FEW OR NO CLOUDS BELOW 12,000 FEET WITH NO
SIGNIFICANT WEATHER AND/OR OBSTRUCTIONS TO VISIBILITY. N/A MEANS
CURRENT SKY AND/OR WEATHER CONDITIONS ARE NOT AVAILABLE.

MNZ060>063-068>070-140700-
   Twin Cities Metro

CITY           SKY/WX    TMP DP  RH WIND       PRES   REMARKS
TWIN CITIES    MOCLDY    17  14  88 W3        29.97R
6HR MIN TEMP:  17; 6HR MAX TEMP:  24;

ST PAUL        MOCLDY    16  14  92 CALM      29.98R
CRYSTAL        CLOUDY    20  13  74 W5        29.96R WCI  13
BLAINE         CLOUDY    21  18  86 NW5       29.96R WCI  15
LAKEVILLE        N/A     12  12 100 W3        29.96R
EDEN PRAIRIE   CLOUDY    16  12  84 SW3       29.97R
6HR MIN TEMP:  16; 6HR MAX TEMP:  24;

SOUTH ST PAUL  CLEAR     15  13  92 CALM      29.97R
LAKE ELMO      CLOUDY    10   9  92 CALM      29.97R
$$
MNZ001>005-007-008-013>017-022>024-027-028-140700-
   Northwest Minnesota

CITY           SKY/WX    TMP DP  RH WIND       PRES   REMARKS
BEMIDJI        FLURRIES  12   9  88 NW3       29.93S
HALLOCK        CLOUDY    18  14  86 W5        29.99S WCI  11
ROSEAU         FLURRIES  12   9  85 SW3       29.96R
WARROAD        CLOUDY     7   3  85 CALM      29.95R
CROOKSTON      FLURRIES  16  12  86 CALM      30.00F
FOSSTON        FLURRIES  10   9  92 W5        29.97R WCI   2
DETROIT LAKES  CLOUDY    16  14  93 NW5       29.96S WCI   9
MOORHEAD       MIX PCPN  16  12  86 CALM      30.02R
PARK RAPIDS    CLOUDY    14  10  84 W6        29.93F WCI   5
MAHNOMEN       FLURRIES  13  10  87 NW5       29.97R WCI   5
$$
MNZ006-009>011-018-025>026-140700-
   North Central Minnesota

CITY           SKY/WX    TMP DP  RH WIND       PRES   REMARKS
BAUDETTE       CLOUDY     5   2  87 SW5       29.92F WCI  -4
FLAG ISLAND    CLOUDY     9   7  92 CALM      29.92S
INTL FALLS     CLOUDY    14  10  84 W6        29.92R WCI   5
6HR MIN TEMP:  13; 6HR MAX TEMP:  17;

WASKISH        FLURRIES  10  10 100 CALM      29.94F
BIG FORK       CLOUDY    16  12  86 CALM      29.91F
LONGVILLE      CLOUDY    16  12  86 CALM      29.93F
GRAND RAPIDS   FLURRIES  16  12  84 NW3       29.93F
CRANE LAKE     FLURRIES  12  10  92 CALM      29.94S
ORR            FLURRIES  14  10  85 NW3       29.89S
COOK           FLURRIES  14  10  85 CALM      29.91S
WALKER         FLURRIES  12   9  87 CALM      29.95R
$$
MNZ012-019>021-037-140700-
   Northeast Minnesota

CITY           SKY/WX    TMP DP  RH WIND       PRES   REMARKS
DULUTH         CLOUDY     8   6  92 CALM      29.90R
6HR MIN TEMP:   4; 6HR MAX TEMP:  18; 6HR PCP: TRACE;

ELY            FLURRIES   9   7  92 CALM      29.90S
HIBBING        LGT SNOW  14  11  87 N3        29.91R FOG
EVELETH        LGT SNOW  13   8  80 NW5       29.92S WCI   5
DULUTH HARBOR  PTCLDY    18  12  79 NW6       29.97S WCI   9
TWO HARBORS    CLEAR     -2  -8  78 CALM      29.91R
GRAND MARAIS     N/A     10   2  69 W5        29.95S WCI   2
G MARAIS ARPRT CLEAR     -2  -9  71 NW5       29.83R WCI -12
$$
MNZ029>031-032-039>041-046>048-054>057-064-140700-
   West Central Minnesota

CITY           SKY/WX    TMP DP  RH WIND       PRES   REMARKS
FERGUS FALLS   CLOUDY    18  12  79 CALM      30.00F
WHEATON        CLOUDY    19  16  86 NW3       30.03R
MORRIS         CLOUDY    19  16  86 NW6       29.98S WCI  11
ALEXANDRIA     CLOUDY    18  13  80 N3        29.96S
ELBOW LAKE     CLOUDY    18  15  86 NW3       29.97F
WADENA         FLURRIES  14  10  85 CALM      29.94F
GLENWOOD       PTCLDY    18  14  86 CALM      29.97R
APPLETON       CLOUDY    21  16  79 NW13      30.00S WCI   9
BENSON         CLOUDY    21  16  79 NW6       30.00S WCI  14
ORTONVILLE     CLOUDY    21  16  79 N6        30.00S WCI  14
MADISON        CLOUDY    23  18  80 N13       30.01S WCI  11
WILLMAR        CLOUDY    19  16  86 CALM      29.99S
$$
MNZ033>034-036-042>043-049>051-058-059-140700-
   Central Minnesota

CITY           SKY/WX    TMP DP  RH WIND       PRES   REMARKS
ST CLOUD       CLOUDY    10   7  87 CALM      29.97R
6HR MIN TEMP:   9; 6HR MAX TEMP:  20;

SAUK CENTRE    FAIR      14  11  87 NW5       29.97S WCI   6
PAYNESVILLE    CLEAR      9   7  92 W3        29.99R
AITKIN         FLURRIES  16  12  86 NW3       29.93R
PINE RIVER     FLURRIES  12  10  92 NW3       29.97F
BRAINERD       CLOUDY    17  12  80 NW9       29.96R WCI   6
STAPLES        FLURRIES  14  10  85 CALM      29.95F
LONG PRAIRIE   CLOUDY    14  10  85 W5        29.97R WCI   6
LITTLE FALLS   CLOUDY     5   1  85 W3        29.98R
LITCHFIELD     PTCLDY    16  12  86 W3        29.99R
BUFFALO        CLOUDY    17  12  81 W7        29.99R WCI   8
MAPLE LAKE     CLOUDY    17  14  88 NW5       29.98R WCI  10
HUTCHINSON     CLOUDY    15  12  87 NW5       29.99S WCI   8
$$
MNZ037-044-045-052-053-140700-
   East Central Minnesota

CITY           SKY/WX    TMP DP  RH WIND       PRES   REMARKS
PRINCETON      PTCLDY     9   5  85 CALM      29.96R
MORA           CLEAR     12  10  92 N3        29.97R
CAMBRIDGE      CLEAR     16  10  79 CALM      29.96R
RUSH CITY      CLOUDY    14  13  93 CALM      29.96R
MOOSE LAKE     CLOUDY    19  14  79 N5        29.92R WCI  13
HINCKLEY       CLOUDY    18  16  93 NW3       29.95R
CLOQUET        CLEAR      9   5  85 CALM      29.92R
MCGREGOR       CLOUDY    19  16  86 NW7       29.94R WCI  10
$$
MNZ071>073-080-081-089-090-097-098-140700-
   Southwest Minnesota

CITY           SKY/WX    TMP DP  RH WIND       PRES   REMARKS
MONTEVIDEO     CLOUDY    21  18  86 N5        30.00R WCI  15
GRANITE FALLS  CLOUDY    25  19  78 NW7       30.01R WCI  17
CANBY          CLOUDY    23  19  85 N9        30.01S WCI  13
MARSHALL       CLOUDY    21  16  81 N14       30.00R WCI   8
REDWOOD FALLS  CLOUDY    21  13  71 NE5       30.00R WCI  15
OLIVIA         PTCLDY    18  14  86 NE3       29.99R
PIPESTONE      CLOUDY    25  21  86 N8        29.96S WCI  16
WINDOM           N/A     23  10  58 N7        29.97R WCI  15
WORTHINGTON    CLOUDY    23  19  85 N17       29.97R WCI   9
JACKSON        CLOUDY    23  18  80 MISG      29.97R
SLAYTON        CLOUDY    22  20  91 N13       29.97R WCI  10
$$
MNZ065>067-074>077-082>085-091>093-140700-
   South Central Minnesota

CITY           SKY/WX    TMP DP  RH WIND       PRES   REMARKS
MANKATO        CLEAR     17  13  84 NW7       29.99R WCI   8
NEW ULM        CLEAR     16  10  79 N7        29.99S WCI   6
ST JAMES       CLOUDY    19  16  86 NW7       30.00R WCI  10
FAIRMONT       CLOUDY    22  16  78 N12       29.99R WCI  10
GLENCOE        CLEAR     17  14  89 NW7       29.98R WCI   7
FARIBAULT      CLEAR     14  12  92 W3        29.96R
OWATONNA       CLEAR     12  10  92 W5        29.95R WCI   4
WASECA         CLEAR     14  12  92 NW5       29.98R WCI   6
$$
MNZ078>079-086>088-094>096-140700-
   Southeast Minnesota

CITY           SKY/WX    TMP DP  RH WIND       PRES   REMARKS
ROCHESTER      CLEAR     15  12  88 N9        29.91S WCI   3
6HR MIN TEMP:  15; 6HR MAX TEMP:  23;

RED WING       PTCLDY    12   9  85 N5        29.95R WCI   4
STANTON        CLEAR     12   9  87 SW6       29.96R WCI   2
DODGE CENTER   CLEAR     14  12  92 NW5       29.93R WCI   6
WINONA           N/A     18  14  86 CALM      29.97R
PRESTON        CLEAR     15  11  85 CALM      29.92R
$$
ABBREVIATIONS USED IN REMARKS
   TC - TEMPERATURES IN CELSIUS
  WCI - WIND CHILL INDEX
   HX - HEAT INDEX
  VSB - VISIBILITY
$$




USA.gov is the U.S. government's official web portal to all federal, state and local government web resources and services.